contact:dominique.lefevre@mio.osupytheas.fr, maurice.libes@osupytheas.fr, didier.mallarino@osupytheas.fr
Project:EMSO http://www.emso-fr.org/EMSO-France
Depth: 2436.0 m
Title:EMSO Ligure Ouest : Data MII capteur AQUADOPP
Date,Latitude,Longitude,X_East,Y_North,Z_Up,Amplitude_X,Amplitude_Y,Amplitude_Z,Batterie,SoundSpeed,Heading,Pitch,Roll,Pressure,TIS,Speed,Direction
, degrees North, degrees East, m.s-1, m.s-1,m.s-1, 1, 1, 1, Volt, m.s-1, degree, degree, degree, dbar, degree_C, m.s-1, degree
2024-01-01T00:01:03,42.805,6.029,0.026,-0.037,0.005,107.0,105.0,104.0,13.4,1505.2,344.2,-0.7,1.8,2471.536,13.29,0.045,144.9
2024-01-01T00:04:03,42.805,6.029,0.031,-0.033,-0.029,106.0,106.0,105.0,13.4,1505.2,348.5,-0.8,1.8,2471.544,13.29,0.045,136.8
2024-01-01T00:07:03,42.805,6.029,-0.007,-0.05,-0.03,106.0,106.0,104.0,13.4,1505.2,354.0,-0.8,1.8,2471.549,13.29,0.05,188.0
2024-01-01T00:10:03,42.805,6.029,0.017,-0.037,-0.036,106.0,106.0,104.0,13.4,1505.2,346.3,-0.8,1.8,2471.546,13.29,0.04,155.3
2024-01-01T00:13:03,42.805,6.029,0.022,-0.032,0.019,107.0,106.0,103.0,13.4,1505.2,349.4,-0.8,1.8,2471.523,13.29,0.038,145.5
2024-01-01T00:16:03,42.805,6.029,0.017,-0.051,-0.023,105.0,106.0,104.0,13.3,1505.2,346.7,-0.8,1.8,2471.547,13.29,0.053,161.6
2024-01-01T00:19:03,42.805,6.029,-0.004,-0.025,-0.032,107.0,106.0,104.0,13.4,1505.2,343.5,-0.8,1.8,2471.523,13.29,0.025,189.1
2024-01-01T00:22:03,42.805,6.029,0.004,-0.038,-0.021,106.0,106.0,104.0,13.4,1505.2,355.9,-0.8,1.8,2471.501,13.29,0.038,174.0
2024-01-01T00:25:03,42.805,6.029,0.008,-0.064,-0.014,107.0,107.0,104.0,13.4,1505.2,0.0,-0.7,1.8,2471.506,13.29,0.064,172.9
2024-01-01T00:28:03,42.805,6.029,0.017,-0.035,0.004,106.0,106.0,104.0,13.4,1505.2,343.6,-0.8,1.8,2471.513,13.29,0.038,154.1
2024-01-01T00:31:03,42.805,6.029,0.009,-0.063,-0.012,107.0,106.0,104.0,13.4,1505.2,3.1,-0.8,1.8,2471.492,13.29,0.063,171.9
2024-01-01T00:34:03,42.805,6.029,0.013,-0.058,-0.024,108.0,105.0,103.0,13.4,1505.2,343.5,-0.7,1.8,2471.521,13.29,0.059,167.4
2024-01-01T00:37:03,42.805,6.029,-0.008,-0.042,-0.041,106.0,107.0,105.0,13.4,1505.2,351.8,-0.8,1.8,2471.532,13.29,0.042,190.8
2024-01-01T00:40:03,42.805,6.029,0.009,-0.053,-0.019,106.0,106.0,104.0,13.4,1505.2,2.3,-0.7,1.8,2471.525,13.29,0.053,170.4
2024-01-01T00:43:03,42.805,6.029,0.021,-0.036,-0.015,107.0,106.0,103.0,13.4,1505.2,343.5,-0.8,1.8,2471.555,13.29,0.041,149.7
2024-01-01T00:46:03,42.805,6.029,0.006,-0.031,-0.017,106.0,105.0,103.0,13.3,1505.2,358.4,-0.8,1.8,2471.508,13.29,0.031,169.0
2024-01-01T00:49:03,42.805,6.029,-0.007,-0.055,-0.02,107.0,105.0,103.0,13.3,1505.2,349.4,-0.7,1.8,2471.511,13.29,0.055,187.3
2024-01-01T00:52:03,42.805,6.029,0.02,-0.033,-0.024,107.0,106.0,103.0,13.4,1505.2,349.1,-0.7,1.8,2471.533,13.29,0.038,148.8
2024-01-01T00:55:03,42.805,6.029,0.021,-0.042,-0.002,107.0,106.0,103.0,13.3,1505.2,357.5,-0.8,1.8,2471.534,13.29,0.046,153.4
2024-01-01T00:58:03,42.805,6.029,-0.012,-0.011,0.002,105.0,107.0,104.0,13.4,1505.2,358.5,-0.8,1.8,2471.533,13.29,0.016,227.5
2024-01-01T01:04:03,42.805,6.029,0.008,-0.022,-0.016,107.0,107.0,105.0,13.4,1505.2,347.9,-0.7,1.8,2471.542,13.28,0.023,160.0
2024-01-01T01:07:03,42.805,6.029,-0.002,-0.036,-0.005,106.0,105.0,103.0,13.4,1505.2,356.4,-0.7,1.8,2471.568,13.29,0.036,183.2
2024-01-01T01:10:03,42.805,6.029,0.031,-0.031,0.021,106.0,106.0,103.0,13.4,1505.2,340.3,-0.8,1.8,2471.547,13.29,0.043,135.0
2024-01-01T01:13:03,42.805,6.029,0.008,-0.034,-0.046,107.0,106.0,104.0,13.4,1505.2,348.2,-0.8,1.8,2471.549,13.29,0.034,166.8
2024-01-01T01:16:03,42.805,6.029,0.0,-0.042,-0.025,106.0,105.0,104.0,13.4,1505.2,2.2,-0.8,1.8,2471.545,13.29,0.042,180.0
2024-01-01T01:19:03,42.805,6.029,0.027,-0.004,0.0,106.0,107.0,103.0,13.4,1505.2,340.8,-0.7,1.8,2471.544,13.29,0.027,98.4
2024-01-01T01:22:03,42.805,6.029,-0.013,-0.025,-0.057,106.0,105.0,104.0,13.4,1505.2,348.3,-0.7,1.8,2471.524,13.29,0.028,207.5
2024-01-01T01:25:03,42.805,6.029,0.012,-0.036,0.028,107.0,107.0,103.0,13.4,1505.2,0.8,-0.8,1.8,2471.525,13.29,0.037,161.6
2024-01-01T01:28:03,42.805,6.029,0.017,-0.047,-0.015,106.0,106.0,104.0,13.4,1505.2,352.3,-0.7,1.8,2471.49,13.29,0.049,160.1
2024-01-01T01:31:03,42.805,6.029,0.01,-0.041,-0.001,106.0,106.0,103.0,13.4,1505.2,350.9,-0.8,1.8,2471.495,13.29,0.042,166.3
2024-01-01T01:34:03,42.805,6.029,-0.006,-0.04,-0.059,107.0,106.0,103.0,13.4,1505.2,1.4,-0.8,1.8,2471.505,13.29,0.04,188.5
2024-01-01T01:37:03,42.805,6.029,0.032,-0.018,0.013,106.0,105.0,103.0,13.3,1505.2,342.3,-0.8,1.8,2471.512,13.29,0.036,119.4
2024-01-01T01:40:03,42.805,6.029,0.037,-0.049,-0.003,106.0,106.0,104.0,13.4,1505.2,347.0,-0.8,1.8,2471.475,13.29,0.061,142.9
2024-01-01T01:43:03,42.805,6.029,0.008,-0.039,-0.004,106.0,106.0,103.0,13.3,1505.2,357.5,-0.8,1.8,2471.51,13.29,0.039,168.4
2024-01-01T01:46:03,42.805,6.029,0.017,-0.034,0.005,106.0,106.0,104.0,13.4,1505.2,3.1,-0.8,1.8,2471.461,13.29,0.038,153.4
2024-01-01T01:49:03,42.805,6.029,0.019,-0.052,-0.014,107.0,106.0,103.0,13.4,1505.2,348.4,-0.7,1.8,2471.509,13.29,0.055,159.9
2024-01-01T01:52:03,42.805,6.029,0.015,-0.034,0.0,106.0,106.0,104.0,13.4,1505.2,351.9,-0.8,1.8,2471.495,13.29,0.037,156.2
2024-01-01T01:55:03,42.805,6.029,0.0,-0.023,0.0,106.0,106.0,104.0,13.4,1505.2,0.0,-0.7,1.8,2471.473,13.29,0.023,180.0
2024-01-01T01:58:03,42.805,6.029,0.027,-0.028,0.007,107.0,106.0,104.0,13.4,1505.2,339.8,-0.8,1.8,2471.465,13.29,0.038,136.0
2024-01-01T02:04:03,42.805,6.029,0.023,-0.062,-0.014,107.0,105.0,103.0,13.3,1505.2,348.5,-0.8,1.8,2471.503,13.28,0.066,159.6
2024-01-01T02:07:03,42.805,6.029,0.004,-0.052,-0.023,105.0,105.0,104.0,13.4,1505.2,2.4,-0.8,1.8,2471.532,13.29,0.052,175.6
2024-01-01T02:10:03,42.805,6.029,0.034,-0.026,-0.043,107.0,107.0,103.0,13.4,1505.2,347.7,-0.8,1.8,2471.531,13.29,0.042,127.4
2024-01-01T02:13:03,42.805,6.029,0.01,-0.035,0.002,107.0,105.0,103.0,13.3,1505.2,351.0,-0.8,1.8,2471.531,13.29,0.036,164.1
2024-01-01T02:16:03,42.805,6.029,0.001,-0.033,-0.026,109.0,105.0,104.0,13.4,1505.2,347.6,-0.8,1.8,2471.47,13.29,0.033,178.3
2024-01-01T02:19:03,42.805,6.029,0.017,-0.042,-0.014,106.0,106.0,104.0,13.4,1505.2,1.4,-0.8,1.8,2471.477,13.29,0.045,158.0
2024-01-01T02:22:03,42.805,6.029,0.033,-0.033,-0.003,107.0,106.0,103.0,13.4,1505.2,353.2,-0.7,1.8,2471.487,13.29,0.046,135.0
2024-01-01T02:25:03,42.805,6.029,-0.017,-0.034,-0.03,107.0,106.0,104.0,13.4,1505.2,358.4,-0.8,1.8,2471.513,13.29,0.038,206.6
2024-01-01T02:28:03,42.805,6.029,0.011,-0.037,-0.019,106.0,107.0,104.0,13.3,1505.2,358.3,-0.8,1.8,2471.504,13.29,0.038,163.4
2024-01-01T02:31:03,42.805,6.029,0.027,-0.06,-0.031,105.0,105.0,105.0,13.3,1505.2,341.5,-0.8,1.8,2471.476,13.29,0.065,155.8
2024-01-01T02:34:03,42.805,6.029,0.014,-0.026,0.005,108.0,106.0,102.0,13.4,1505.2,350.6,-0.7,1.8,2471.506,13.29,0.029,151.7
2024-01-01T02:37:03,42.805,6.029,0.027,-0.036,-0.001,107.0,106.0,104.0,13.4,1505.2,355.6,-0.8,1.8,2471.492,13.29,0.045,143.1
2024-01-01T02:40:03,42.805,6.029,0.029,-0.047,0.003,106.0,107.0,105.0,13.4,1505.2,354.1,-0.8,1.8,2471.486,13.29,0.055,148.3
2024-01-01T02:43:03,42.805,6.029,0.02,-0.026,-0.033,106.0,106.0,103.0,13.3,1505.2,1.6,-0.8,1.8,2471.506,13.29,0.032,142.4
2024-01-01T02:46:03,42.805,6.029,0.018,-0.05,-0.015,106.0,106.0,103.0,13.4,1505.2,354.8,-0.7,1.9,2471.477,13.29,0.053,160.2
2024-01-01T02:49:03,42.805,6.029,0.005,-0.043,-0.002,107.0,105.0,105.0,13.3,1505.2,353.1,-0.7,1.8,2471.45,13.29,0.043,173.4
2024-01-01T02:52:03,42.805,6.029,0.01,-0.048,-0.055,105.0,107.0,103.0,13.4,1505.2,354.9,-0.8,1.8,2471.464,13.29,0.049,168.2
2024-01-01T02:55:03,42.805,6.029,0.009,-0.051,0.002,106.0,106.0,104.0,13.3,1505.2,1.4,-0.8,1.8,2471.467,13.29,0.051,170.0
2024-01-01T02:58:03,42.805,6.029,-0.004,-0.047,0.005,106.0,106.0,103.0,13.4,1505.2,348.8,-0.8,1.8,2471.478,13.29,0.047,184.9
2024-01-01T03:04:03,42.805,6.029,0.02,-0.04,0.003,107.0,106.0,104.0,13.3,1505.2,3.7,-0.7,1.8,2471.512,13.28,0.044,153.4
2024-01-01T03:07:03,42.805,6.029,0.029,-0.038,-0.004,107.0,106.0,103.0,13.4,1505.2,346.5,-0.8,1.8,2471.492,13.29,0.047,142.7
2024-01-01T03:10:03,42.805,6.029,0.007,-0.031,-0.003,107.0,106.0,104.0,13.4,1505.2,358.3,-0.8,1.8,2471.513,13.29,0.031,167.3
2024-01-01T03:13:02,42.805,6.029,0.034,-0.054,-0.022,107.0,106.0,104.0,13.3,1505.2,348.8,-0.7,1.8,2471.525,13.29,0.063,147.8
2024-01-01T03:16:03,42.805,6.029,0.015,-0.036,-0.021,106.0,107.0,103.0,13.4,1505.2,0.0,-0.8,1.8,2471.45,13.29,0.039,157.4
2024-01-01T03:19:03,42.805,6.029,0.015,-0.031,-0.01,107.0,106.0,104.0,13.3,1505.2,341.5,-0.8,1.8,2471.477,13.29,0.034,154.2
2024-01-01T03:22:03,42.805,6.029,0.035,-0.036,-0.03,109.0,106.0,103.0,13.3,1505.2,347.3,-0.8,1.8,2471.452,13.29,0.05,135.8
2024-01-01T03:25:03,42.805,6.029,0.009,-0.049,0.001,108.0,107.0,104.0,13.4,1505.2,4.6,-0.8,1.8,2471.473,13.29,0.049,169.6
2024-01-01T03:28:03,42.805,6.029,0.01,-0.021,-0.01,107.0,106.0,103.0,13.4,1505.2,339.7,-0.8,1.8,2471.509,13.29,0.023,154.5
2024-01-01T03:31:03,42.805,6.029,-0.01,-0.047,-0.025,107.0,106.0,104.0,13.4,1505.2,353.9,-0.7,1.8,2471.459,13.29,0.048,192.0
2024-01-01T03:34:03,42.805,6.029,0.017,-0.039,-0.001,106.0,106.0,105.0,13.4,1505.2,3.1,-0.8,1.8,2471.467,13.29,0.042,156.5
2024-01-01T03:37:03,42.805,6.029,0.016,-0.022,-0.012,107.0,106.0,103.0,13.3,1505.2,342.8,-0.8,1.8,2471.48,13.29,0.027,144.0
2024-01-01T03:40:03,42.805,6.029,0.008,-0.047,-0.018,107.0,105.0,104.0,13.4,1505.2,354.6,-0.8,1.8,2471.482,13.29,0.047,170.3
2024-01-01T03:43:03,42.805,6.029,0.014,-0.03,-0.003,108.0,106.0,103.0,13.3,1505.2,347.4,-0.8,1.8,2471.462,13.29,0.033,155.0
2024-01-01T03:46:03,42.805,6.029,0.008,-0.034,-0.021,107.0,106.0,105.0,13.3,1505.2,345.7,-0.8,1.8,2471.477,13.29,0.034,166.8
2024-01-01T03:49:03,42.805,6.029,0.018,-0.043,-0.013,105.0,106.0,104.0,13.4,1505.2,348.5,-0.8,1.8,2471.456,13.29,0.046,157.3
2024-01-01T03:52:03,42.805,6.029,0.017,-0.028,0.006,106.0,107.0,103.0,13.4,1505.2,357.7,-0.7,1.8,2471.481,13.29,0.032,148.7
2024-01-01T03:55:03,42.805,6.029,0.017,-0.056,-0.025,106.0,106.0,104.0,13.4,1505.2,356.3,-0.8,1.8,2471.455,13.29,0.058,163.1
2024-01-01T03:58:03,42.805,6.029,0.013,-0.035,-0.016,106.0,106.0,104.0,13.4,1505.2,349.1,-0.8,1.8,2471.447,13.29,0.037,159.6
2024-01-01T04:04:03,42.805,6.029,0.009,-0.02,-0.038,105.0,105.0,103.0,13.4,1505.2,350.6,-0.8,1.8,2471.497,13.28,0.021,155.8
2024-01-01T04:07:03,42.805,6.029,-0.012,-0.018,-0.02,106.0,105.0,105.0,13.3,1505.2,350.6,-0.8,1.8,2471.485,13.29,0.021,213.7
2024-01-01T04:10:03,42.805,6.029,0.009,-0.03,0.007,106.0,105.0,103.0,13.3,1505.2,352.0,-0.8,1.8,2471.525,13.29,0.031,163.3
2024-01-01T04:13:03,42.805,6.029,0.012,-0.028,-0.03,106.0,106.0,104.0,13.4,1505.2,355.0,-0.8,1.8,2471.473,13.29,0.03,156.8
2024-01-01T04:16:03,42.805,6.029,0.016,-0.028,0.0,105.0,105.0,103.0,13.3,1505.2,340.8,-0.8,1.8,2471.463,13.29,0.032,150.3
2024-01-01T04:19:03,42.805,6.029,0.02,-0.047,-0.007,106.0,106.0,104.0,13.3,1505.2,353.9,-0.8,1.8,2471.489,13.29,0.051,157.0
2024-01-01T04:22:03,42.805,6.029,0.031,-0.048,0.015,105.0,105.0,103.0,13.4,1505.2,3.0,-0.7,1.8,2471.509,13.29,0.057,147.1
2024-01-01T04:25:03,42.805,6.029,0.005,-0.051,-0.016,105.0,104.0,104.0,13.4,1505.2,359.1,-0.8,1.8,2471.474,13.29,0.051,174.4
2024-01-01T04:28:03,42.805,6.029,0.024,-0.03,0.006,105.0,105.0,103.0,13.4,1505.2,353.3,-0.7,1.8,2471.507,13.29,0.038,141.3
2024-01-01T04:31:03,42.805,6.029,0.033,-0.038,-0.014,105.0,105.0,103.0,13.4,1505.2,352.9,-0.8,1.8,2471.505,13.29,0.05,139.0
2024-01-01T04:34:03,42.805,6.029,0.0,-0.028,-0.016,106.0,104.0,102.0,13.4,1505.2,358.3,-0.8,1.8,2471.412,13.29,0.028,180.0
2024-01-01T04:37:03,42.805,6.029,0.021,-0.049,-0.024,106.0,104.0,103.0,13.4,1505.2,350.5,-0.7,1.8,2471.442,13.29,0.053,156.8
2024-01-01T04:40:03,42.805,6.029,-0.003,-0.025,-0.003,104.0,105.0,104.0,13.4,1505.2,359.1,-0.8,1.8,2471.465,13.29,0.025,186.8
2024-01-01T04:43:03,42.805,6.029,0.029,-0.037,-0.03,105.0,105.0,104.0,13.3,1505.2,343.1,-0.8,1.8,2471.537,13.29,0.047,141.9
2024-01-01T04:46:03,42.805,6.029,0.033,-0.05,0.006,105.0,106.0,104.0,13.4,1505.2,346.1,-0.8,1.8,2471.494,13.29,0.059,146.6
2024-01-01T04:49:03,42.805,6.029,0.016,-0.034,-0.01,106.0,105.0,103.0,13.3,1505.2,353.5,-0.7,1.8,2471.445,13.29,0.037,154.8
2024-01-01T04:52:03,42.805,6.029,0.0,-0.045,-0.002,106.0,105.0,104.0,13.3,1505.2,350.3,-0.8,1.8,2471.439,13.29,0.045,180.0
2024-01-01T04:55:03,42.805,6.029,0.038,-0.037,0.005,106.0,105.0,104.0,13.4,1505.2,351.6,-0.8,1.8,2471.487,13.29,0.053,134.2
2024-01-01T04:58:03,42.805,6.029,0.016,-0.04,-0.021,106.0,105.0,103.0,13.4,1505.2,353.5,-0.8,1.8,2471.454,13.29,0.043,158.2
2024-01-01T05:04:03,42.805,6.029,-0.006,-0.036,-0.023,106.0,106.0,103.0,13.4,1505.2,357.5,-0.8,1.8,2471.509,13.28,0.036,189.5
2024-01-01T05:07:03,42.805,6.029,0.009,-0.042,-0.03,106.0,105.0,103.0,13.4,1505.2,348.9,-0.8,1.8,2471.5,13.29,0.042,167.9
2024-01-01T05:10:03,42.805,6.029,0.024,-0.057,-0.037,105.0,106.0,103.0,13.3,1505.2,3.7,-0.7,1.8,2471.511,13.29,0.061,157.2
2024-01-01T05:13:03,42.805,6.029,0.028,-0.018,-0.004,106.0,106.0,102.0,13.3,1505.2,345.1,-0.8,1.8,2471.563,13.29,0.033,122.7
2024-01-01T05:16:03,42.805,6.029,0.012,-0.047,-0.034,105.0,106.0,104.0,13.3,1505.2,347.2,-0.7,1.8,2471.519,13.29,0.048,165.7
2024-01-01T05:19:03,42.805,6.029,0.02,-0.027,0.005,106.0,105.0,104.0,13.4,1505.2,356.6,-0.7,1.8,2471.502,13.29,0.033,143.5
2024-01-01T05:22:03,42.805,6.029,0.012,-0.054,-0.041,106.0,104.0,104.0,13.4,1505.2,357.7,-0.7,1.8,2471.491,13.29,0.055,167.5
2024-01-01T05:25:03,42.805,6.029,0.008,-0.055,-0.018,106.0,105.0,103.0,13.4,1505.2,357.5,-0.7,1.8,2471.514,13.29,0.055,171.7
2024-01-01T05:28:03,42.805,6.029,0.032,-0.037,-0.023,107.0,106.0,104.0,13.4,1505.2,353.3,-0.7,1.8,2471.482,13.29,0.048,139.1
2024-01-01T05:31:03,42.805,6.029,0.019,-0.046,-0.043,106.0,105.0,104.0,13.3,1505.2,357.4,-0.8,1.8,2471.474,13.29,0.049,157.6
2024-01-01T05:34:03,42.805,6.029,0.009,-0.046,-0.044,106.0,105.0,104.0,13.4,1505.2,343.5,-0.8,1.8,2471.486,13.29,0.046,168.9
2024-01-01T05:37:03,42.805,6.029,0.022,-0.057,-0.048,105.0,105.0,104.0,13.4,1505.2,356.9,-0.7,1.8,2471.489,13.29,0.061,158.9
2024-01-01T05:40:03,42.805,6.029,0.027,-0.054,-0.008,105.0,105.0,103.0,13.3,1505.2,347.9,-0.8,1.8,2471.484,13.29,0.06,153.4
2024-01-01T05:43:03,42.805,6.029,0.027,-0.028,0.006,107.0,105.0,104.0,13.3,1505.2,346.8,-0.7,1.8,2471.511,13.29,0.038,136.0
2024-01-01T05:46:03,42.805,6.029,0.025,-0.024,-0.009,106.0,106.0,104.0,13.3,1505.2,342.8,-0.8,1.8,2471.503,13.29,0.034,133.8
2024-01-01T05:49:03,42.805,6.029,0.042,-0.037,-0.024,106.0,105.0,103.0,13.4,1505.2,356.7,-0.8,1.8,2471.482,13.29,0.055,131.4
2024-01-01T05:52:03,42.805,6.029,-0.004,-0.044,-0.012,106.0,105.0,104.0,13.4,1505.2,347.4,-0.7,1.8,2471.517,13.29,0.044,185.2
2024-01-01T05:55:03,42.805,6.029,-0.008,-0.057,0.011,106.0,104.0,103.0,13.3,1505.2,3.8,-0.8,1.8,2471.527,13.29,0.057,188.0
2024-01-01T05:58:03,42.805,6.029,0.026,-0.036,-0.005,106.0,106.0,103.0,13.3,1505.2,342.5,-0.8,1.8,2471.502,13.29,0.044,144.2
2024-01-01T06:04:03,42.805,6.029,0.019,-0.032,-0.006,106.0,105.0,104.0,13.4,1505.2,346.4,-0.8,1.8,2471.535,13.28,0.037,149.3
2024-01-01T06:07:03,42.805,6.029,0.031,-0.036,-0.012,105.0,106.0,104.0,13.4,1505.2,347.2,-0.8,1.8,2471.525,13.29,0.047,139.3
2024-01-01T06:10:03,42.805,6.029,0.015,-0.048,-0.012,106.0,105.0,105.0,13.4,1505.2,4.6,-0.8,1.8,2471.543,13.29,0.05,162.6
2024-01-01T06:13:03,42.805,6.029,0.015,-0.03,-0.01,106.0,105.0,103.0,13.4,1505.2,341.5,-0.8,1.8,2471.517,13.29,0.033,153.4
2024-01-01T06:16:03,42.805,6.029,0.021,-0.045,-0.024,107.0,105.0,104.0,13.4,1505.2,354.6,-0.8,1.8,2471.506,13.29,0.049,155.0
2024-01-01T06:19:03,42.805,6.029,0.024,-0.039,0.005,105.0,105.0,104.0,13.4,1505.2,354.2,-0.8,1.8,2471.512,13.29,0.045,148.4
2024-01-01T06:22:03,42.805,6.029,0.046,-0.034,-0.025,106.0,105.0,104.0,13.4,1505.2,351.5,-0.8,1.8,2471.515,13.29,0.057,126.5
2024-01-01T06:25:03,42.805,6.029,0.018,-0.029,-0.003,106.0,105.0,104.0,13.4,1505.2,344.2,-0.8,1.8,2471.547,13.29,0.034,148.2
2024-01-01T06:28:03,42.805,6.029,0.016,-0.034,0.025,106.0,105.0,104.0,13.4,1505.2,357.5,-0.8,1.8,2471.524,13.29,0.037,154.8
2024-01-01T06:31:03,42.805,6.029,0.011,-0.038,-0.048,107.0,105.0,103.0,13.4,1505.2,353.1,-0.8,1.8,2471.509,13.29,0.039,163.9
2024-01-01T06:34:03,42.805,6.029,0.022,-0.042,-0.036,106.0,105.0,104.0,13.4,1505.2,359.1,-0.8,1.8,2471.541,13.29,0.047,152.4
2024-01-01T06:37:03,42.805,6.029,0.02,-0.029,-0.004,106.0,105.0,103.0,13.4,1505.2,342.6,-0.8,1.8,2471.564,13.29,0.035,145.4
2024-01-01T06:40:03,42.805,6.029,0.004,-0.035,-0.004,107.0,105.0,105.0,13.4,1505.2,348.9,-0.7,1.8,2471.507,13.29,0.035,173.5
2024-01-01T06:43:03,42.805,6.029,0.034,-0.023,0.003,107.0,105.0,103.0,13.4,1505.2,350.6,-0.8,1.8,2471.515,13.29,0.041,124.1
2024-01-01T06:46:03,42.805,6.029,0.012,-0.018,0.022,105.0,105.0,104.0,13.4,1505.2,347.1,-0.7,1.8,2471.513,13.29,0.021,146.3
2024-01-01T06:49:03,42.805,6.029,0.025,-0.031,0.014,107.0,105.0,103.0,13.4,1505.2,352.0,-0.7,1.8,2471.532,13.29,0.039,141.1
2024-01-01T06:52:03,42.805,6.029,-0.003,-0.036,-0.018,108.0,107.0,103.0,13.3,1505.2,353.2,-0.8,1.8,2471.501,13.29,0.036,184.8
2024-01-01T06:55:03,42.805,6.029,0.017,-0.029,-0.021,107.0,106.0,103.0,13.4,1505.2,359.1,-0.8,1.8,2471.55,13.29,0.033,149.6
2024-01-01T06:58:03,42.805,6.029,0.054,-0.022,-0.007,107.0,106.0,104.0,13.4,1505.2,355.7,-0.7,1.8,2471.527,13.29,0.058,112.2
2024-01-01T07:04:03,42.805,6.029,0.045,-0.031,-0.02,106.0,105.0,104.0,13.4,1505.2,349.1,-0.8,1.8,2471.588,13.28,0.054,124.6
2024-01-01T07:07:03,42.805,6.029,0.004,-0.046,-0.021,106.0,105.0,104.0,13.4,1505.2,5.3,-0.8,1.8,2471.604,13.29,0.046,175.0
2024-01-01T07:10:03,42.805,6.029,0.021,-0.026,-0.006,107.0,105.0,104.0,13.4,1505.2,347.0,-0.8,1.8,2471.591,13.29,0.033,141.1
2024-01-01T07:13:03,42.805,6.029,0.028,-0.048,-0.008,107.0,106.0,104.0,13.4,1505.2,348.5,-0.8,1.8,2471.557,13.29,0.055,149.7
2024-01-01T07:16:03,42.805,6.029,0.034,-0.038,-0.007,106.0,105.0,104.0,13.4,1505.2,347.9,-0.8,1.8,2471.573,13.29,0.05,138.2
2024-01-01T07:19:03,42.805,6.029,0.022,-0.02,-0.023,106.0,105.0,104.0,13.4,1505.2,359.1,-0.7,1.8,2471.549,13.29,0.029,132.3
2024-01-01T07:22:03,42.805,6.029,0.021,-0.054,-0.006,106.0,106.0,105.0,13.4,1505.2,342.4,-0.8,1.8,2471.59,13.29,0.057,158.8
2024-01-01T07:25:03,42.805,6.029,0.027,-0.021,0.006,106.0,105.0,103.0,13.4,1505.2,352.6,-0.8,1.8,2471.571,13.29,0.034,127.9
2024-01-01T07:28:03,42.805,6.029,0.018,-0.054,-0.006,106.0,105.0,104.0,13.3,1505.2,357.4,-0.7,1.8,2471.558,13.29,0.056,161.6
2024-01-01T07:31:03,42.805,6.029,0.045,-0.04,-0.004,106.0,105.0,104.0,13.3,1505.2,349.1,-0.8,1.9,2471.585,13.29,0.06,131.6
2024-01-01T07:34:03,42.805,6.029,0.031,-0.054,-0.028,107.0,105.0,103.0,13.4,1505.2,348.8,-0.8,1.8,2471.582,13.29,0.062,150.1
2024-01-01T07:37:03,42.805,6.029,0.026,-0.038,0.011,106.0,106.0,104.0,13.4,1505.2,0.7,-0.8,1.8,2471.543,13.29,0.046,145.6
2024-01-01T07:40:03,42.805,6.029,0.027,-0.026,0.009,107.0,106.0,103.0,13.4,1505.2,351.7,-0.8,1.8,2471.586,13.29,0.037,133.9
2024-01-01T07:43:03,42.805,6.029,0.024,-0.031,0.003,106.0,105.0,104.0,13.4,1505.2,346.6,-0.8,1.8,2471.58,13.29,0.039,142.3
2024-01-01T07:46:03,42.805,6.029,0.029,-0.031,-0.015,106.0,106.0,104.0,13.4,1505.2,0.7,-0.8,1.8,2471.59,13.29,0.042,136.9
2024-01-01T07:49:03,42.805,6.029,0.051,-0.038,-0.002,107.0,106.0,104.0,13.3,1505.2,341.3,-0.8,1.8,2471.592,13.29,0.063,126.7
2024-01-01T07:52:03,42.805,6.029,0.024,-0.057,0.001,107.0,106.0,104.0,13.3,1505.2,358.4,-0.8,1.8,2471.618,13.29,0.061,157.2
2024-01-01T07:55:03,42.805,6.029,0.043,-0.033,0.015,106.0,106.0,104.0,13.4,1505.2,359.2,-0.7,1.8,2471.582,13.29,0.054,127.5
2024-01-01T07:58:03,42.805,6.029,0.036,-0.048,-0.038,106.0,106.0,105.0,13.4,1505.2,342.4,-0.8,1.8,2471.594,13.29,0.06,143.1
2024-01-01T08:04:03,42.805,6.029,0.03,-0.052,-0.033,106.0,106.0,104.0,13.4,1505.2,3.7,-0.8,1.8,2471.647,13.28,0.06,150.0
2024-01-01T08:07:03,42.805,6.029,0.031,-0.029,-0.015,106.0,105.0,103.0,13.3,1505.2,343.0,-0.8,1.8,2471.65,13.28,0.042,133.1
2024-01-01T08:10:03,42.805,6.029,0.041,-0.036,0.005,106.0,107.0,104.0,13.3,1505.2,347.4,-0.7,1.8,2471.683,13.29,0.054,131.3
2024-01-01T08:13:03,42.805,6.029,0.037,-0.051,-0.002,106.0,106.0,103.0,13.3,1505.2,1.5,-0.7,1.8,2471.639,13.29,0.063,144.0
2024-01-01T08:16:03,42.805,6.029,0.039,-0.028,0.008,106.0,107.0,104.0,13.3,1505.2,340.8,-0.8,1.8,2471.681,13.29,0.048,125.7
2024-01-01T08:19:03,42.805,6.029,0.032,-0.015,-0.007,107.0,106.0,102.0,13.4,1505.2,356.8,-0.8,1.8,2471.604,13.29,0.035,115.1
2024-01-01T08:22:03,42.805,6.029,0.018,-0.056,-0.023,106.0,105.0,104.0,13.4,1505.2,3.9,-0.8,1.8,2471.643,13.29,0.058,162.2
2024-01-01T08:25:03,42.805,6.029,0.049,-0.042,-0.024,105.0,105.0,104.0,13.4,1505.2,341.8,-0.8,1.8,2471.684,13.29,0.064,130.6
2024-01-01T08:28:03,42.805,6.029,0.026,-0.052,0.008,106.0,105.0,102.0,13.3,1505.2,353.3,-0.8,1.8,2471.664,13.29,0.058,153.4
2024-01-01T08:31:03,42.805,6.029,0.001,-0.047,-0.026,107.0,106.0,103.0,13.4,1505.2,3.7,-0.8,1.8,2471.644,13.29,0.047,178.8
2024-01-01T08:34:03,42.805,6.029,0.065,-0.061,0.001,106.0,106.0,102.0,13.4,1505.2,349.8,-0.8,1.8,2471.666,13.29,0.089,133.2
2024-01-01T08:37:03,42.805,6.029,0.021,-0.034,-0.014,106.0,105.0,104.0,13.3,1505.2,352.8,-0.7,1.8,2471.652,13.29,0.039,148.3
2024-01-01T08:40:03,42.805,6.029,0.048,-0.015,-0.007,106.0,107.0,104.0,13.4,1505.2,348.0,-0.7,1.8,2471.691,13.29,0.05,107.4
2024-01-01T08:43:03,42.805,6.029,0.037,-0.033,0.006,106.0,106.0,104.0,13.4,1505.2,359.2,-0.8,1.8,2471.63,13.29,0.049,131.7
2024-01-01T08:46:03,42.805,6.029,0.03,-0.041,-0.009,107.0,106.0,102.0,13.4,1505.2,348.3,-0.8,1.8,2471.683,13.29,0.05,143.8
2024-01-01T08:49:03,42.805,6.029,0.027,-0.048,-0.006,107.0,106.0,104.0,13.4,1505.2,357.8,-0.7,1.8,2471.61,13.29,0.055,150.6
2024-01-01T08:52:03,42.805,6.029,0.04,-0.046,-0.042,106.0,106.0,103.0,13.4,1505.2,343.7,-0.8,1.8,2471.642,13.29,0.06,139.0
2024-01-01T08:55:03,42.805,6.029,0.029,-0.054,-0.035,107.0,106.0,103.0,13.4,1505.2,354.6,-0.8,1.8,2471.672,13.29,0.061,151.8
2024-01-01T08:58:03,42.805,6.029,0.017,-0.034,0.006,106.0,106.0,103.0,13.4,1505.2,349.9,-0.8,1.8,2471.67,13.29,0.038,153.4
2024-01-01T09:04:03,42.805,6.029,0.055,-0.046,-0.012,106.0,105.0,103.0,13.4,1505.2,342.4,-0.8,1.8,2471.677,13.28,0.071,129.9
2024-01-01T09:07:03,42.805,6.029,0.038,-0.08,-0.025,106.0,106.0,104.0,13.3,1505.2,350.5,-0.8,1.8,2471.705,13.28,0.088,154.6
2024-01-01T09:10:03,42.805,6.029,0.03,-0.035,-0.006,107.0,105.0,104.0,13.4,1505.2,347.9,-0.8,1.8,2471.648,13.29,0.046,139.4
2024-01-01T09:13:03,42.805,6.029,0.029,-0.049,0.0,107.0,105.0,103.0,13.4,1505.2,356.4,-0.8,1.8,2471.677,13.29,0.056,149.4
2024-01-01T09:16:03,42.805,6.029,0.037,-0.031,-0.027,106.0,105.0,103.0,13.3,1505.2,357.6,-0.7,1.8,2471.722,13.29,0.048,130.0
2024-01-01T09:19:03,42.805,6.029,0.014,-0.064,-0.018,106.0,106.0,103.0,13.4,1505.2,3.1,-0.8,1.8,2471.705,13.29,0.065,167.7
2024-01-01T09:22:03,42.805,6.029,0.042,-0.026,-0.002,106.0,106.0,103.0,13.4,1505.2,341.3,-0.7,1.8,2471.716,13.29,0.049,121.8
2024-01-01T09:25:03,42.805,6.029,0.019,-0.052,0.001,106.0,105.0,103.0,13.4,1505.2,359.2,-0.8,1.8,2471.654,13.29,0.055,159.9
2024-01-01T09:28:03,42.805,6.029,0.035,-0.032,0.024,106.0,105.0,104.0,13.4,1505.2,348.8,-0.7,1.8,2471.704,13.29,0.047,132.4
2024-01-01T09:31:03,42.805,6.029,0.023,-0.054,-0.032,106.0,106.0,103.0,13.3,1505.2,352.1,-0.7,1.8,2471.712,13.29,0.058,156.9
2024-01-01T09:34:03,42.805,6.029,0.029,-0.093,0.009,106.0,105.0,103.0,13.4,1505.2,357.6,-0.8,1.8,2471.675,13.29,0.097,162.7
2024-01-01T09:37:03,42.805,6.029,0.016,-0.046,-0.013,106.0,106.0,102.0,13.4,1505.2,3.0,-0.8,1.8,2471.714,13.29,0.048,160.8
2024-01-01T09:40:03,42.805,6.029,0.029,-0.062,0.0,105.0,105.0,103.0,13.4,1505.2,342.4,-0.8,1.8,2471.7,13.29,0.068,154.9
2024-01-01T09:43:03,42.805,6.029,0.025,-0.034,-0.026,107.0,105.0,103.0,13.4,1505.2,356.9,-0.8,1.8,2471.702,13.29,0.042,143.7
2024-01-01T09:46:03,42.805,6.029,0.019,-0.052,-0.008,106.0,104.0,104.0,13.3,1505.2,3.8,-0.8,1.8,2471.686,13.29,0.055,159.9
2024-01-01T09:49:03,42.805,6.029,0.023,-0.043,-0.011,105.0,106.0,104.0,13.4,1505.2,346.1,-0.8,1.8,2471.636,13.29,0.048,151.9
2024-01-01T09:52:03,42.805,6.029,0.045,-0.058,-0.022,106.0,105.0,103.0,13.3,1505.2,346.7,-0.8,1.8,2471.699,13.29,0.073,142.2